�N����,����,�~����,�C��,���x,�C��,����,���ϕ���,�ő�u�ԕ���,�ő厞����,���˗�,�I�_���x,�n�����x,�ő啗���N��,DTYPE
"21/09/25","00:10",0.0,18.6,90.5,1015.6,329.2,1.2,1.8,321.4,0.00,17.1,23.3,"00:07:20",1
"21/09/25","00:20",0.0,18.8,90.7,1015.9,322.8,1.2,1.8,314.5,0.00,17.3,23.1,"00:17:44",1
"21/09/25","00:30",0.0,18.9,91.0,1015.9,316.4,1.2,2.2,327.6,0.00,17.4,23.3,"00:28:08",1
"21/09/25","00:40",0.0,19.1,91.0,1015.9,327.0,1.3,2.7,336.6,0.00,17.6,23.1,"00:30:40",1
"21/09/25","00:50",0.0,19.0,91.1,1015.9,330.2,1.2,2.0,341.1,0.00,17.6,22.9,"00:41:52",1
"21/09/25","01:00",0.0,19.3,91.0,1015.6,325.5,1.6,3.4,342.5,0.00,17.8,22.9,"00:54:08",1
"21/09/25","01:10",0.0,19.3,90.9,1016.1,324.6,1.2,2.1,314.3,0.00,17.8,23.2,"01:09:44",1
"21/09/25","01:20",0.0,19.6,90.6,1016.1,324.0,2.1,3.7,336.9,0.00,18.1,23.2,"01:18:16",1
"21/09/25","01:30",0.0,19.8,90.1,1016.1,324.8,2.1,3.7,305.6,0.00,18.2,23.0,"01:29:52",1
"21/09/25","01:40",0.0,19.8,89.6,1016.1,327.2,2.0,3.7,342.6,0.00,18.1,23.0,"01:34:24",1
"21/09/25","01:50",0.0,19.6,89.3,1016.4,326.9,1.2,1.8,327.9,0.00,17.8,23.0,"01:45:36",1
"21/09/25","02:00",0.0,19.5,89.2,1016.1,333.8,1.5,2.9,344.4,0.00,17.7,23.0,"01:55:28",1
"21/09/25","02:10",0.0,19.5,89.1,1016.1,328.0,1.6,3.5,340.3,0.00,17.7,22.8,"02:05:20",1
"21/09/25","02:20",0.0,19.5,88.9,1016.4,334.5,1.6,2.8,335.8,0.00,17.7,22.9,"02:10:08",1
"21/09/25","02:30",0.0,19.5,89.0,1016.4,332.4,1.6,2.9,345.8,0.00,17.7,22.8,"02:23:52",1
"21/09/25","02:40",0.0,19.4,89.0,1016.6,331.5,1.6,2.4,347.5,0.00,17.6,22.8,"02:30:16",1
"21/09/25","02:50",0.0,19.4,88.9,1016.8,327.9,1.5,2.5,340.5,0.00,17.6,22.8,"02:45:04",1
"21/09/25","03:00",0.0,19.2,89.1,1016.8,329.2,1.3,2.7,328.7,0.00,17.4,23.1,"02:58:40",1
"21/09/25","03:10",0.0,19.1,89.2,1016.4,333.2,1.5,2.5,335.4,0.00,17.3,22.8,"03:05:36",1
"21/09/25","03:20",0.0,18.9,89.4,1016.4,317.6,1.0,1.8,336.3,0.00,17.2,23.0,"03:12:24",1
"21/09/25","03:30",0.0,18.7,89.6,1016.4,334.4,0.3,1.2,342.1,0.00,17.0,22.7,"03:22:16",1
"21/09/25","03:40",0.0,18.5,89.9,1016.6,131.7,0.2,0.6,124.8,0.00,16.9,22.9,"03:32:40",1
"21/09/25","03:50",0.0,18.4,90.0,1016.6,294.7,0.6,1.2,332.4,0.00,16.8,22.8,"03:44:40",1
"21/09/25","04:00",0.0,18.1,90.2,1016.1,295.3,0.6,1.3,332.1,0.00,16.5,22.8,"03:51:04",1
"21/09/25","04:10",0.0,18.1,90.4,1016.1,304.2,0.8,1.3,329.9,0.00,16.5,22.8,"04:05:12",1
"21/09/25","04:20",0.0,18.2,90.7,1016.6,300.4,1.0,1.6,328.1,0.00,16.7,22.7,"04:17:36",1
"21/09/25","04:30",0.0,18.2,90.9,1016.4,298.5,1.0,1.6,316.5,0.00,16.7,22.7,"04:20:48",1
"21/09/25","04:40",0.0,18.6,91.3,1016.4,307.2,1.5,2.7,329.5,0.00,17.2,22.6,"04:38:40",1
"21/09/25","04:50",0.0,18.8,91.4,1016.4,309.6,1.5,2.8,333.4,0.00,17.4,22.5,"04:42:56",1
"21/09/25","05:00",0.0,18.8,91.5,1016.4,320.8,1.2,3.6,337.8,0.00,17.4,22.8,"04:57:52",1
"21/09/25","05:10",0.0,18.8,91.4,1016.6,319.0,0.7,1.6,328.3,0.00,17.4,22.5,"05:00:48",1
"21/09/25","05:20",0.0,18.4,91.5,1016.4,303.0,0.5,1.1,322.7,0.00,17.0,22.7,"05:16:56",1
"21/09/25","05:30",0.0,18.0,91.8,1016.4,295.1,0.3,1.1,317.4,0.00,16.7,22.7,"05:21:28",1
"21/09/25","05:40",0.0,17.9,92.0,1016.4,280.8,0.7,1.9,330.0,0.00,16.6,22.6,"05:35:44",1
"21/09/25","05:50",0.0,17.9,92.1,1016.4,272.6,0.6,1.7,334.6,0.00,16.6,22.5,"05:49:44",1
"21/09/25","06:00",0.0,18.1,92.1,1016.6,312.7,0.8,1.8,332.7,0.00,16.8,22.5,"05:57:12",1
"21/09/25","06:10",0.0,18.0,92.2,1016.8,297.2,0.5,1.6,318.7,0.00,16.8,22.5,"06:01:52",1
"21/09/25","06:20",0.0,17.9,92.3,1016.6,320.8,0.8,1.4,330.1,0.00,16.7,22.5,"06:11:44",1
"21/09/25","06:30",0.0,18.0,92.6,1016.4,327.5,1.0,1.4,337.1,0.00,16.8,22.5,"06:28:40",1
"21/09/25","06:40",0.0,18.0,92.7,1016.4,330.4,1.0,1.6,349.7,0.00,16.8,22.5,"06:33:28",1
"21/09/25","06:50",0.0,18.2,92.8,1016.4,300.8,0.5,0.6,308.0,0.00,17.1,22.4,"06:40:08",1
"21/09/25","07:00",0.0,18.7,92.9,1016.4,329.7,0.5,1.1,330.5,0.01,17.6,22.4,"06:51:44",1
"21/09/25","07:10",0.0,19.3,92.9,1016.4,240.4,0.0,0.3,236.7,0.02,18.2,22.2,"07:00:08",1
"21/09/25","07:20",0.0,20.0,92.9,1016.6,311.8,0.3,0.9,336.0,0.04,18.9,22.2,"07:18:48",1
"21/09/25","07:30",0.0,20.5,92.8,1016.6,36.5,0.3,1.0,340.6,0.06,19.3,22.3,"07:20:16",1
"21/09/25","07:40",0.0,20.5,91.9,1016.8,210.8,0.2,0.6,98.5,0.08,19.2,22.3,"07:30:32",1
"21/09/25","07:50",0.0,21.5,91.8,1016.8,26.8,0.2,0.5,112.6,0.11,20.2,22.4,"07:45:44",1
"21/09/25","08:00",0.0,21.6,91.0,1016.8,316.7,0.3,0.8,280.3,0.14,20.1,22.3,"07:52:00",1
"21/09/25","08:10",0.0,22.2,90.2,1017.1,108.1,0.2,1.1,123.0,0.16,20.6,22.4,"08:06:24",1
"21/09/25","08:20",0.0,22.3,88.2,1016.8,173.8,0.5,1.1,218.7,0.18,20.3,22.4,"08:18:32",1
"21/09/25","08:30",0.0,22.7,86.0,1017.1,190.4,0.7,1.7,230.8,0.20,20.3,22.4,"08:29:28",1
"21/09/25","08:40",0.0,23.3,83.5,1016.8,231.4,0.5,1.4,195.6,0.23,20.4,22.3,"08:30:08",1
"21/09/25","08:50",0.0,24.1,80.3,1016.6,101.1,0.3,1.3,116.6,0.26,20.5,22.4,"08:41:44",1
"21/09/25","09:00",0.0,24.9,75.7,1016.4,139.2,0.3,1.1,160.7,0.28,20.4,22.5,"08:57:12",1
"21/09/25","09:10",0.0,25.0,72.0,1015.9,252.7,0.6,2.1,234.1,0.31,19.6,22.5,"09:04:40",1
"21/09/25","09:20",0.0,25.2,70.7,1015.4,215.7,1.0,2.5,229.7,0.33,19.5,22.4,"09:15:44",1
"21/09/25","09:30",0.0,25.9,70.2,1016.1,46.2,0.3,1.1,220.2,0.35,20.1,22.6,"09:20:16",1
"21/09/25","09:40",0.0,26.3,67.8,1016.1,274.5,0.6,1.9,353.3,0.37,19.9,22.5,"09:31:52",1
"21/09/25","09:50",0.0,26.4,66.0,1016.6,118.8,0.8,2.2,114.0,0.39,19.6,22.7,"09:43:52",1
"21/09/25","10:00",0.0,26.6,65.6,1016.6,354.3,0.7,1.8,356.3,0.41,19.7,22.5,"09:57:20",1
"21/09/25","10:10",0.0,26.8,64.8,1016.6,34.1,0.8,1.9,346.0,0.42,19.7,22.7,"10:08:48",1
"21/09/25","10:20",0.0,27.1,65.1,1016.6,166.2,1.0,2.8,203.8,0.44,20.0,22.9,"10:13:52",1
"21/09/25","10:30",0.0,27.5,65.2,1016.6,161.5,1.5,3.6,222.6,0.47,20.4,22.6,"10:21:36",1
"21/09/25","10:40",0.0,27.8,63.4,1016.4,161.3,1.0,3.5,225.5,0.48,20.3,22.8,"10:33:44",1
"21/09/25","10:50",0.0,28.1,63.1,1016.8,131.4,1.2,3.3,194.9,0.48,20.5,22.8,"10:42:40",1
"21/09/25","11:00",0.0,28.6,62.0,1016.6,136.5,0.8,2.8,126.1,0.50,20.6,23.0,"10:51:36",1
"21/09/25","11:10",0.0,28.4,61.2,1016.4,131.4,1.6,3.4,123.0,0.51,20.2,23.1,"11:04:00",1
"21/09/25","11:20",0.0,27.7,62.0,1016.4,163.8,1.7,4.1,200.6,0.35,19.8,23.0,"11:13:36",1
"21/09/25","11:30",0.0,28.2,62.2,1016.1,159.7,1.2,4.5,117.1,0.50,20.3,23.3,"11:29:12",1
"21/09/25","11:40",0.0,28.1,60.7,1016.4,35.2,1.0,2.0,5.3,0.29,19.8,23.4,"11:32:24",1
"21/09/25","11:50",0.0,27.8,61.7,1016.1,105.7,1.2,2.9,91.3,0.26,19.8,23.4,"11:44:32",1
"21/09/25","12:00",0.0,28.1,60.1,1015.6,84.0,0.8,2.6,51.4,0.29,19.7,23.5,"11:56:48",1
"21/09/25","12:10",0.0,29.0,59.9,1015.6,99.5,0.8,2.7,110.4,0.44,20.5,23.4,"12:09:12",1
"21/09/25","12:20",0.0,29.1,58.3,1015.9,126.1,1.0,2.7,75.1,0.37,20.1,23.7,"12:19:20",1
"21/09/25","12:30",0.0,28.8,58.0,1015.9,83.7,1.3,2.7,165.7,0.32,19.8,23.6,"12:27:28",1
"21/09/25","12:40",0.0,28.8,60.6,1015.6,126.9,1.5,4.3,105.7,0.40,20.5,23.7,"12:33:44",1
"21/09/25","12:50",0.0,29.0,59.0,1015.6,135.5,1.3,2.7,178.9,0.35,20.2,23.9,"12:42:16",1
"21/09/25","13:00",0.0,29.9,55.8,1015.6,160.9,1.2,3.1,191.4,0.59,20.2,23.7,"12:56:56",1
"21/09/25","13:10",0.0,30.2,54.5,1016.4,163.8,1.7,4.4,195.8,0.53,20.1,23.7,"13:07:44",1
"21/09/25","13:20",0.0,29.8,55.7,1015.6,195.1,1.3,3.1,196.1,0.39,20.0,23.9,"13:14:24",1
"21/09/25","13:30",0.0,29.6,55.8,1015.9,148.4,0.8,2.4,144.1,0.32,19.9,24.1,"13:24:40",1
"21/09/25","13:40",0.0,30.0,56.9,1015.4,185.6,1.7,2.8,213.0,0.45,20.6,23.9,"13:30:32",1
"21/09/25","13:50",0.0,29.0,57.3,1015.2,84.8,1.2,3.1,99.7,0.09,19.7,24.1,"13:44:48",1
"21/09/25","14:00",0.0,28.3,60.9,1014.7,99.2,1.2,3.7,100.1,0.17,20.1,24.2,"13:52:16",1
"21/09/25","14:10",0.0,29.3,59.0,1014.5,107.6,1.3,3.3,146.5,0.38,20.5,24.2,"14:04:40",1
"21/09/25","14:20",0.0,29.1,58.2,1014.2,111.5,1.3,3.1,65.7,0.31,20.1,24.3,"14:19:52",1
"21/09/25","14:30",0.0,28.5,59.3,1014.0,95.0,1.3,3.6,191.5,0.12,19.8,24.3,"14:20:40",1
"21/09/25","14:40",0.0,28.3,60.3,1014.0,69.8,1.0,2.9,94.3,0.09,19.9,24.3,"14:38:00",1
"21/09/25","14:50",0.0,27.8,61.0,1013.5,90.8,1.2,3.3,122.0,0.06,19.6,24.4,"14:42:08",1
"21/09/25","15:00",0.0,27.5,62.4,1013.3,89.3,1.2,2.8,104.1,0.06,19.7,24.3,"14:50:40",1
"21/09/25","15:10",0.0,27.6,62.8,1013.3,46.3,1.1,2.7,94.0,0.07,19.9,24.6,"15:01:20",1
"21/09/25","15:20",0.0,27.5,63.1,1013.0,29.0,1.0,2.7,41.4,0.07,19.9,24.4,"15:16:48",1
"21/09/25","15:30",0.0,27.5,63.4,1013.0,356.7,1.0,2.7,6.9,0.06,20.0,24.6,"15:22:40",1
"21/09/25","15:40",0.0,27.2,62.5,1013.0,75.1,1.0,2.6,18.9,0.07,19.5,24.5,"15:38:16",1
"21/09/25","15:50",0.0,27.9,61.9,1012.8,70.0,0.8,2.5,41.7,0.17,20.0,24.5,"15:45:12",1
"21/09/25","16:00",0.0,27.9,60.5,1012.8,76.2,1.1,2.6,15.4,0.13,19.6,24.4,"15:58:48",1
"21/09/25","16:10",0.0,27.9,60.5,1013.0,115.0,1.2,2.6,118.8,0.14,19.6,24.6,"16:05:20",1
"21/09/25","16:20",0.0,28.4,59.2,1013.0,84.0,1.0,2.5,54.0,0.17,19.7,24.3,"16:13:36",1
"21/09/25","16:30",0.0,28.2,57.9,1013.5,82.4,1.2,4.1,123.7,0.12,19.2,24.7,"16:28:32",1
"21/09/25","16:40",0.0,27.6,58.9,1013.0,116.2,1.2,2.8,134.6,0.07,18.9,24.7,"16:33:12",1
"21/09/25","16:50",0.0,26.9,60.4,1012.8,115.8,1.2,2.6,94.5,0.04,18.6,24.5,"16:45:04",1
"21/09/25","17:00",0.0,26.9,60.8,1013.3,44.2,0.8,1.8,341.4,0.03,18.7,24.4,"16:58:32",1
"21/09/25","17:10",0.0,26.7,61.7,1013.5,21.8,0.6,1.6,340.7,0.03,18.8,24.5,"17:01:12",1
"21/09/25","17:20",0.0,26.8,62.0,1013.8,41.4,1.0,1.9,3.6,0.03,19.0,24.5,"17:12:24",1
"21/09/25","17:30",0.0,26.6,63.0,1013.8,7.6,0.6,1.8,124.8,0.02,19.0,24.7,"17:21:44",1
"21/09/25","17:40",0.0,26.2,64.1,1013.8,325.2,0.3,1.7,209.7,0.01,18.9,24.7,"17:37:52",1
"21/09/25","17:50",0.0,25.7,64.5,1014.0,45.1,0.8,1.7,56.8,0.00,18.5,24.7,"17:44:56",1
"21/09/25","18:00",0.0,25.5,65.2,1013.8,77.8,0.7,2.4,120.8,0.00,18.5,24.5,"17:54:00",1
"21/09/25","18:10",0.0,25.1,66.5,1014.2,61.1,0.6,2.1,6.8,0.00,18.5,24.5,"18:04:56",1
"21/09/25","18:20",0.0,24.8,67.5,1014.2,359.2,0.6,2.0,38.0,0.00,18.4,24.5,"18:10:32",1
"21/09/25","18:30",0.0,24.0,70.4,1014.2,343.0,1.3,2.1,342.8,0.00,18.3,24.6,"18:27:20",1
"21/09/25","18:40",0.0,23.4,72.8,1014.9,337.2,1.0,1.9,337.2,0.00,18.3,24.3,"18:30:16",1
"21/09/25","18:50",0.0,22.9,76.2,1014.7,338.2,1.2,2.1,344.2,0.00,18.5,24.4,"18:43:04",1
"21/09/25","19:00",0.0,22.6,78.2,1015.2,328.9,0.8,2.2,329.5,0.00,18.7,24.3,"18:50:24",1
"21/09/25","19:10",0.0,22.5,79.2,1015.4,319.9,0.8,1.7,337.4,0.00,18.8,24.3,"19:02:48",1
"21/09/25","19:20",0.0,22.4,79.9,1015.4,312.8,0.6,1.0,315.7,0.00,18.8,24.2,"19:19:04",1
"21/09/25","19:30",0.0,22.3,80.6,1015.4,311.6,1.0,1.3,328.2,0.00,18.8,24.2,"19:23:36",1
"21/09/25","19:40",0.0,22.3,81.2,1015.6,279.4,0.7,1.4,306.0,0.00,19.0,24.2,"19:38:48",1
"21/09/25","19:50",0.0,22.4,81.6,1015.9,281.3,0.6,1.4,319.1,0.00,19.1,24.3,"19:49:28",1
"21/09/25","20:00",0.0,22.5,81.6,1016.1,298.6,0.8,1.7,320.3,0.00,19.2,24.4,"19:50:48",1
"21/09/25","20:10",0.0,22.7,81.3,1016.1,324.2,1.1,1.6,334.1,0.00,19.4,24.2,"20:05:36",1
"21/09/25","20:20",0.0,22.6,81.2,1016.4,314.6,0.8,1.2,321.3,0.00,19.3,24.1,"20:10:08",1
"21/09/25","20:30",0.0,22.4,81.3,1016.6,304.7,0.7,1.0,320.8,0.00,19.1,24.3,"20:22:00",1
"21/09/25","20:40",0.0,22.3,81.6,1016.6,307.6,0.6,1.0,329.9,0.00,19.0,24.2,"20:38:40",1
"21/09/25","20:50",0.0,22.3,82.2,1016.6,295.6,0.7,1.1,313.0,0.00,19.2,24.2,"20:43:52",1
"21/09/25","21:00",0.0,22.2,82.7,1016.6,302.5,0.6,1.3,319.4,0.00,19.2,24.1,"20:59:20",1
"21/09/25","21:10",0.0,22.5,82.3,1016.6,11.9,0.6,1.2,107.8,0.00,19.4,24.1,"21:08:04",1
"21/09/25","21:20",0.0,23.2,79.9,1016.6,110.8,1.0,2.4,200.9,0.00,19.6,24.2,"21:11:52",1
"21/09/25","21:30",0.0,23.7,77.2,1016.8,150.7,1.0,3.4,186.6,0.00,19.5,24.0,"21:25:04",1
"21/09/25","21:40",0.0,23.7,75.6,1016.4,108.5,0.6,1.4,124.3,0.00,19.2,23.8,"21:30:24",1
"21/09/25","21:50",0.0,23.7,75.2,1016.6,337.3,0.5,1.3,146.8,0.00,19.1,24.1,"21:40:40",1
"21/09/25","22:00",0.0,23.6,76.3,1016.6,319.8,0.8,1.4,338.4,0.00,19.2,24.1,"21:59:44",1
"21/09/25","22:10",0.0,23.1,78.1,1016.6,329.6,1.2,1.7,339.8,0.00,19.1,24.1,"22:00:32",1
"21/09/25","22:20",0.0,22.9,79.4,1016.6,290.7,1.0,1.6,324.5,0.00,19.2,24.1,"22:12:00",1
"21/09/25","22:30",0.0,22.8,80.0,1016.4,337.6,1.0,1.7,337.5,0.00,19.2,23.8,"22:22:08",1
"21/09/25","22:40",0.0,23.2,81.3,1016.4,210.9,1.1,2.6,228.2,0.00,19.9,23.9,"22:36:08",1
"21/09/25","22:50",0.4,22.8,83.0,1015.9,215.3,1.1,2.1,203.8,0.00,19.8,23.8,"22:46:16",1
"21/09/25","23:00",0.0,22.2,84.0,1015.9,288.5,1.5,2.4,314.1,0.00,19.4,23.9,"22:58:48",1
"21/09/25","23:10",0.0,22.3,85.5,1016.1,323.3,2.1,2.9,323.0,0.00,19.8,24.1,"23:05:52",1
"21/09/25","23:20",0.0,21.9,86.6,1016.1,305.7,1.8,2.5,309.9,0.00,19.6,24.0,"23:12:32",1
"21/09/25","23:30",0.0,21.8,87.6,1015.9,307.2,2.0,2.6,318.4,0.00,19.7,23.7,"23:21:44",1
"21/09/25","23:40",0.0,21.6,88.4,1015.4,275.7,1.0,1.6,329.0,0.00,19.6,23.8,"23:30:08",1
"21/09/25","23:50",0.0,21.6,88.9,1015.6,305.4,1.6,2.4,322.4,0.00,19.7,23.6,"23:47:52",1
"21/09/25","24:00",0.0,21.6,89.5,1016.1,300.1,1.6,2.1,319.2,0.00,19.8,23.7,"23:54:32",1
